Date,TemperatureHighF,TemperatureAvgF,TemperatureLowF,DewpointHighF,DewpointAvgF,DewpointLowF,HumidityHigh,HumidityAvg,HumidityLow,PressureMaxIn,PressureMinIn,WindSpeedMaxMPH,WindSpeedAvgMPH,GustSpeedMaxMPH,PrecipitationSumIn
2014-1-1,36,19,10,8,-27,-36,30,3,1,30.29,29.97,24,9,24,0.00
2014-1-2,20,11,2,-7,-27,-65,31,15,1,30.42,30.29,15,4,15,0.00
2014-1-3,41,26,4,15,-13,-40,35,17,1,30.37,29.68,25,10,25,0.08
2014-1-4,40,28,15,3,-20,-32,25,4,1,30.06,29.65,27,9,27,0.00
2014-1-5,16,11,0,-3,-16,-35,48,30,1,30.48,30.01,30,11,30,0.00
2014-1-6,11,0,-10,-6,-16,-24,52,47,38,30.52,30.33,16,5,16,0.01
2014-1-7,42,21,-3,18,-10,-32,42,25,1,30.33,30.01,15,4,15,0.04
2014-1-8,33,25,16,6,-18,-31,32,9,1,30.29,30.13,14,5,14,0.00
2014-1-9,33,24,17,-18,-25,-30,1,1,1,30.27,29.92,8,3,8,0.00
2014-1-10,41,37,33,-11,-15,-18,1,1,1,29.92,29.50,10,3,10,0.04
2014-1-11,49,37,30,18,-12,-20,31,5,1,29.87,29.62,17,6,17,0.01
2014-1-12,66,48,31,36,11,-19,43,23,1,29.81,29.44,22,7,22,0.00
2014-1-13,51,40,33,28,-2,-18,42,15,1,29.88,29.64,14,5,14,0.00
2014-1-14,47,39,25,22,3,-17,48,23,1,30.20,29.73,22,7,22,0.00
2014-1-15,40,31,19,19,8,-4,47,39,24,30.21,29.76,12,5,12,0.00
2014-1-16,51,40,25,25,11,-16,48,32,1,30.05,29.74,30,10,30,0.00
2014-1-17,38,27,18,9,5,-1,50,40,24,30.16,29.92,18,6,18,0.00
2014-1-18,53,37,21,29,13,-27,46,37,1,30.08,29.71,30,10,30,0.00
2014-1-19,66,40,18,28,4,-29,45,21,1,30.08,29.76,17,5,17,0.00
2014-1-20,55,38,17,30,6,-25,48,28,1,30.32,29.81,24,6,24,0.00
2014-1-21,25,16,5,1,-5,-14,48,39,29,30.44,30.06,21,6,21,0.00
2014-1-22,42,28,9,15,5,-16,50,39,16,30.48,30.03,30,8,30,0.00
2014-1-23,20,9,3,-1,-7,-14,53,48,36,30.77,30.47,22,6,25,0.00
2014-1-24,47,29,5,23,6,-16,46,38,29,30.58,29.75,25,10,25,0.00
2014-1-25,50,42,29,27,5,-22,44,22,1,30.01,29.71,21,6,21,0.00
2014-1-26,62,45,20,33,10,-18,45,24,1,30.19,29.62,33,11,33,0.00
2014-1-27,20,13,7,-2,-6,-8,51,42,31,30.45,30.19,26,7,26,0.00
2014-1-28,26,12,0,6,-6,-45,51,43,11,30.44,30.24,12,3,12,0.00
2014-1-29,49,29,7,16,-2,-36,41,27,5,30.24,29.77,22,9,22,0.00
2014-1-30,50,37,29,24,16,10,46,41,31,29.95,29.57,24,12,24,0.00
2014-1-31,29,23,20,10,-16,-28,46,15,1,30.03,29.84,19,8,21,0.00